This is the latest recevied weather packets stored in our database for station/object KQ7A. If no packets are shown the sender has not sent any weather packets the latest 10 day(s).
| Time | Temp. | Humidity | Pressure | Rain* | Wind** | Luminosity | Snow |
|---|---|---|---|---|---|---|---|
| 1788116727 | 23.89° C | 27% | 1019.6 hPa | 0 mm | - | 789 W/m² | - |
| 1788116422 | 23.89° C | 28% | 1019.8 hPa | 0 mm | - | 806 W/m² | - |
| 1788116116 | 23.89° C | 25% | 1019.8 hPa | 0 mm | - | 814 W/m² | - |
| 1788115812 | 23.89° C | 29% | 1020 hPa | 0 mm | - | 851 W/m² | - |
| 1788115510 | 23.89° C | 31% | 1020.1 hPa | 0 mm | - | 853 W/m² | - |
| 1788115199 | 23.33° C | 27% | 1020.3 hPa | 0 mm | - | 864 W/m² | - |
| 1788114894 | 22.78° C | 28% | 1020.1 hPa | 0 mm | - | 878 W/m² | - |
| 1788114589 | 22.78° C | 26% | 1020 hPa | 0 mm | - | 878 W/m² | - |
| 1788114285 | 22.78° C | 25% | 1020.1 hPa | 0 mm | - | 870 W/m² | - |
| 1788113981 | 22.78° C | 28% | 1020.4 hPa | 0 mm | - | 857 W/m² | - |
| 1788113676 | 23.33° C | 28% | 1020.1 hPa | 0 mm | - | 852 W/m² | - |
| 1788113371 | 22.78° C | 28% | 1020 hPa | 0 mm | - | 869 W/m² | - |
| 1788113070 | 22.78° C | 29% | 1020.3 hPa | 0 mm | - | 870 W/m² | - |
| 1788112769 | 21.67° C | 32% | 1020.4 hPa | 0 mm | - | 858 W/m² | - |
| 1788112464 | 21.67° C | 30% | 1020.6 hPa | 0 mm | - | 843 W/m² | - |
| 1788112159 | 22.22° C | 30% | 1020.5 hPa | 0 mm | - | 825 W/m² | - |
| 1788111855 | 21.67° C | 33% | 1020.4 hPa | 0 mm | - | 823 W/m² | - |
| 1788111550 | 22.22° C | 33% | 1020.7 hPa | 0 mm | - | 812 W/m² | - |
| 1788111245 | 21.67° C | 34% | 1020.4 hPa | 0 mm | - | 795 W/m² | - |
| 1788110941 | 21.11° C | 29% | 1020.6 hPa | 0 mm | - | 767 W/m² | - |
| 1788110637 | 21.67° C | 35% | 1020.6 hPa | 0 mm | - | 734 W/m² | - |
| 1788110332 | 20.56° C | 34% | 1020.8 hPa | 0 mm | - | 730 W/m² | - |
| 1788110028 | 20.56° C | 36% | 1020.6 hPa | 0 mm | - | 711 W/m² | - |
| 1788109723 | 20.56° C | 38% | 1020.7 hPa | 0 mm | - | 698 W/m² | - |
| 1788109422 | 20° C | 39% | 1020.7 hPa | 0 mm | - | 681 W/m² | - |
* Rain latest hour (hover to see other rain measurements)
** Current wind speed in m/s (hover to see current wind gust speed)